Check out our new BloomSky Weather System.

Active alerts


No alerts


Thunder radar  blitzortung!


Rain radar more information rain snow radar


Visit our other weather sites:

Template documentation
and downloads

And another site



Weather Underground History page Text

Daily Summary for July 4, 2017 Units:  Metric    English   Both
« Previous Day
Next Day »
Daily Weekly Monthly Yearly Custom
  High: Low: Average:
Temperature: 36 °C 26.1 °C 30.6 °C
Dew Point: 26.5 °C 23.6 °C 25.1 °C
Humidity: 94 % 50 % 74 %
Wind Speed: 17.7 km/h 0 km/h 5.6 km/h
Wind Gust: 24.1 km/h - -
Wind:- - SSE
Pressure: 1017.2 hPa 1012.8 hPa -
Precipitation: 0 mm    
Historical Graphs
 
 
Tabular Data for July 4, 2017
Time Temperature Dew Point Pressure Wind Wind Speed Wind Gust Humidity Rainfall Rate (Hourly)
00:04 28.2 °C 25.6 °C 1014.8 hPa SSE 9.7 km/h 19.3 km/h 86 % 0 mm
00:09 28.2 °C 25.8 °C 1014.8 hPa SE 4.8 km/h 12.9 km/h 87 % 0 mm
00:14 28.1 °C 25.7 °C 1014.8 hPa South 4.8 km/h 12.9 km/h 87 % 0 mm
00:19 28.1 °C 25.7 °C 1014.8 hPa SSW 6.4 km/h 12.9 km/h 87 % 0 mm
00:24 28 °C 25.6 °C 1015.1 hPa SE 3.2 km/h 12.9 km/h 87 % 0 mm
00:29 28 °C 25.6 °C 1015.1 hPa SSE 8 km/h 12.9 km/h 87 % 0 mm
00:34 28 °C 25.6 °C 1015.1 hPa SE 3.2 km/h 9.7 km/h 87 % 0 mm
00:39 28 °C 25.6 °C 1015.1 hPa SSE 6.4 km/h 9.7 km/h 87 % 0 mm
00:44 28 °C 25.6 °C 1015.1 hPa SSE 3.2 km/h 9.7 km/h 87 % 0 mm
00:49 28 °C 25.6 °C 1015.1 hPa South 9.7 km/h 9.7 km/h 87 % 0 mm
00:54 28 °C 25.8 °C 1015.1 hPa South 4.8 km/h 11.3 km/h 88 % 0 mm
00:59 28 °C 25.8 °C 1015.5 hPa South 3.2 km/h 11.3 km/h 88 % 0 mm
01:04 28 °C 25.8 °C 1015.5 hPa SSE 4.8 km/h 11.3 km/h 88 % 0 mm
01:09 28.1 °C 25.9 °C 1015.5 hPa South 3.2 km/h 11.3 km/h 88 % 0 mm
01:15 28.1 °C 25.9 °C 1015.5 hPa SSE 1.6 km/h 9.7 km/h 88 % 0 mm
01:20 28.1 °C 25.9 °C 1015.5 hPa SSW 3.2 km/h 9.7 km/h 88 % 0 mm
01:25 28.1 °C 25.9 °C 1015.5 hPa SSE 4.8 km/h 9.7 km/h 88 % 0 mm
01:30 28.1 °C 25.9 °C 1015.5 hPa SSE 4.8 km/h 8 km/h 88 % 0 mm
01:35 28.1 °C 25.9 °C 1015.5 hPa SSW 3.2 km/h 9.7 km/h 88 % 0 mm
01:40 28 °C 25.8 °C 1015.5 hPa South 4.8 km/h 12.9 km/h 88 % 0 mm
01:45 27.9 °C 25.7 °C 1015.5 hPa SSW 4.8 km/h 12.9 km/h 88 % 0 mm
01:50 27.9 °C 25.7 °C 1015.5 hPa SSE 4.8 km/h 12.9 km/h 88 % 0 mm
01:55 27.9 °C 25.7 °C 1015.5 hPa SE 4.8 km/h 12.9 km/h 88 % 0 mm
02:00 27.9 °C 25.7 °C 1015.5 hPa SE 1.6 km/h 12.9 km/h 88 % 0 mm
02:05 27.8 °C 25.8 °C 1015.8 hPa SSE 4.8 km/h 12.9 km/h 89 % 0 mm
02:10 27.8 °C 25.8 °C 1015.8 hPa SSW 3.2 km/h 11.3 km/h 89 % 0 mm
02:15 27.8 °C 25.8 °C 1015.8 hPa South 3.2 km/h 8 km/h 89 % 0 mm
02:20 27.8 °C 25.8 °C 1015.8 hPa South 1.6 km/h 8 km/h 89 % 0 mm
02:25 27.7 °C 25.7 °C 1015.8 hPa South 3.2 km/h 9.7 km/h 89 % 0 mm
02:26 27.7 °C 25.7 °C 1015.8 hPa SSW 3.2 km/h 9.7 km/h 89 % 0 mm
02:31 27.7 °C 25.7 °C 1015.5 hPa SSE 1.6 km/h 9.7 km/h 89 % 0 mm
02:36 27.7 °C 25.7 °C 1015.8 hPa SSE 1.6 km/h 9.7 km/h 89 % 0 mm
02:41 27.7 °C 25.7 °C 1015.8 hPa SE 1.6 km/h 6.4 km/h 89 % 0 mm
02:46 27.7 °C 25.7 °C 1015.5 hPa SE 4.8 km/h 6.4 km/h 89 % 0 mm
02:51 27.6 °C 25.6 °C 1015.5 hPa South 4.8 km/h 6.4 km/h 89 % 0 mm
02:56 27.6 °C 25.6 °C 1015.5 hPa South 4.8 km/h 8 km/h 89 % 0 mm
03:01 27.6 °C 25.6 °C 1015.5 hPa SSE 6.4 km/h 8 km/h 89 % 0 mm
03:06 27.6 °C 25.6 °C 1015.5 hPa ESE 6.4 km/h 8 km/h 89 % 0 mm
03:11 27.6 °C 25.6 °C 1015.5 hPa South 3.2 km/h 9.7 km/h 89 % 0 mm
03:16 27.5 °C 25.5 °C 1015.5 hPa SSW 4.8 km/h 9.7 km/h 89 % 0 mm
03:21 27.4 °C 25.6 °C 1015.5 hPa SSW 4.8 km/h 9.7 km/h 90 % 0 mm
03:26 27.4 °C 25.6 °C 1015.5 hPa SSE 3.2 km/h 9.7 km/h 90 % 0 mm
03:31 27.4 °C 25.6 °C 1015.5 hPa SSE 1.6 km/h 9.7 km/h 90 % 0 mm
03:36 27.4 °C 25.6 °C 1015.1 hPa SE 1.6 km/h 9.7 km/h 90 % 0 mm
03:41 27.3 °C 25.5 °C 1015.1 hPa South 4.8 km/h 9.7 km/h 90 % 0 mm
03:46 27.3 °C 25.5 °C 1015.1 hPa SE 3.2 km/h 9.7 km/h 90 % 0 mm
03:51 27.3 °C 25.5 °C 1015.1 hPa SSW 3.2 km/h 9.7 km/h 90 % 0 mm
03:56 27.2 °C 25.4 °C 1015.1 hPa SSE 1.6 km/h 9.7 km/h 90 % 0 mm
04:01 27.2 °C 25.4 °C 1015.1 hPa SSW 3.2 km/h 8 km/h 90 % 0 mm
04:06 27.2 °C 25.4 °C 1015.1 hPa SSE 3.2 km/h 8 km/h 90 % 0 mm
04:11 27.1 °C 25.3 °C 1014.8 hPa SSW 4.8 km/h 8 km/h 90 % 0 mm
04:16 27.1 °C 25.3 °C 1014.8 hPa ESE 1.6 km/h 8 km/h 90 % 0 mm
04:21 27.1 °C 25.3 °C 1015.1 hPa Calm   8 km/h 90 % 0 mm
04:26 27 °C 25.4 °C 1014.8 hPa SE 4.8 km/h 8 km/h 91 % 0 mm
04:31 27 °C 25.4 °C 1014.8 hPa South 3.2 km/h 8 km/h 91 % 0 mm
04:36 26.9 °C 25.3 °C 1014.8 hPa Calm   8 km/h 91 % 0 mm
04:41 26.9 °C 25.3 °C 1014.8 hPa Calm   6.4 km/h 91 % 0 mm
04:46 26.8 °C 25.2 °C 1014.8 hPa South 3.2 km/h 8 km/h 91 % 0 mm
04:51 26.8 °C 25.2 °C 1014.8 hPa South 4.8 km/h 8 km/h 91 % 0 mm
04:56 26.7 °C 25.1 °C 1014.8 hPa SSE 1.6 km/h 8 km/h 91 % 0 mm
05:01 26.7 °C 25.3 °C 1014.8 hPa SSE 1.6 km/h 6.4 km/h 92 % 0 mm
05:06 26.7 °C 25.3 °C 1014.8 hPa SE 3.2 km/h 6.4 km/h 92 % 0 mm
05:11 26.7 °C 25.3 °C 1014.8 hPa Calm   6.4 km/h 92 % 0 mm
05:16 26.6 °C 25.2 °C 1014.8 hPa South 1.6 km/h 6.4 km/h 92 % 0 mm
05:21 26.6 °C 25.2 °C 1014.8 hPa SE 1.6 km/h 6.4 km/h 92 % 0 mm
05:26 26.6 °C 25.2 °C 1014.8 hPa SSE 1.6 km/h 4.8 km/h 92 % 0 mm
05:31 26.5 °C 25.1 °C 1015.1 hPa SSW 1.6 km/h 4.8 km/h 92 % 0 mm
05:36 26.4 °C 25 °C 1015.1 hPa South 3.2 km/h 4.8 km/h 92 % 0 mm
05:41 26.4 °C 25 °C 1015.1 hPa SSW 1.6 km/h 6.4 km/h 92 % 0 mm
05:46 26.4 °C 25 °C 1015.5 hPa Calm   6.4 km/h 92 % 0 mm
05:51 26.4 °C 25.2 °C 1015.1 hPa SSW 1.6 km/h 6.4 km/h 93 % 0 mm
05:56 26.4 °C 25.2 °C 1015.1 hPa SSE 3.2 km/h 8 km/h 93 % 0 mm
06:01 26.4 °C 25.2 °C 1015.5 hPa SSE 1.6 km/h 8 km/h 93 % 0 mm
06:06 26.3 °C 25.1 °C 1015.5 hPa Calm   8 km/h 93 % 0 mm
06:11 26.3 °C 25.1 °C 1015.5 hPa South 1.6 km/h 8 km/h 93 % 0 mm
06:16 26.3 °C 25.1 °C 1015.8 hPa SSW 3.2 km/h 4.8 km/h 93 % 0 mm
06:21 26.3 °C 25.1 °C 1015.8 hPa SSE 1.6 km/h 4.8 km/h 93 % 0 mm
06:26 26.3 °C 25.1 °C 1016.1 hPa SE 1.6 km/h 4.8 km/h 93 % 0 mm
06:31 26.2 °C 25 °C 1016.1 hPa Calm   3.2 km/h 93 % 0 mm
06:36 26.2 °C 25 °C 1016.1 hPa Calm   3.2 km/h 93 % 0 mm
06:41 26.1 °C 24.9 °C 1016.5 hPa Calm   1.6 km/h 93 % 0 mm
06:51 26.1 °C 24.9 °C 1016.5 hPa Calm     93 % 0 mm
06:56 26.1 °C 24.9 °C 1016.5 hPa Calm     93 % 0 mm
07:01 26.1 °C 25.1 °C 1016.5 hPa Calm     94 % 0 mm
07:06 26.2 °C 25.2 °C 1016.5 hPa Calm   3.2 km/h 94 % 0 mm
07:11 26.4 °C 25.4 °C 1016.8 hPa Calm   3.2 km/h 94 % 0 mm
07:16 26.8 °C 25.8 °C 1016.8 hPa Calm   3.2 km/h 94 % 0 mm
07:21 27.1 °C 25.9 °C 1016.8 hPa Calm   1.6 km/h 93 % 0 mm
07:26 27.3 °C 25.9 °C 1016.8 hPa Calm     92 % 0 mm
07:31 27.5 °C 25.9 °C 1016.8 hPa SSW 3.2 km/h 3.2 km/h 91 % 0 mm
07:36 27.6 °C 25.8 °C 1016.5 hPa South 4.8 km/h 6.4 km/h 90 % 0 mm
07:41 27.8 °C 26 °C 1016.8 hPa Calm   8 km/h 90 % 0 mm
07:46 28.1 °C 26.1 °C 1016.8 hPa South 3.2 km/h 8 km/h 89 % 0 mm
07:51 28.2 °C 26 °C 1016.8 hPa Calm   8 km/h 88 % 0 mm
07:56 28.3 °C 26.1 °C 1017.2 hPa ESE 4.8 km/h 6.4 km/h 88 % 0 mm
08:01 28.5 °C 26.1 °C 1016.8 hPa South 6.4 km/h 8 km/h 87 % 0 mm
08:06 28.7 °C 26.1 °C 1016.8 hPa South 9.7 km/h 9.7 km/h 86 % 0 mm
08:11 29 °C 26.4 °C 1016.8 hPa South 1.6 km/h 9.7 km/h 86 % 0 mm
08:16 29.2 °C 26.4 °C 1016.8 hPa SSE 1.6 km/h 9.7 km/h 85 % 0 mm
08:21 29.3 °C 26.1 °C 1016.8 hPa SSW 9.7 km/h 14.5 km/h 83 % 0 mm
08:26 29.3 °C 26.3 °C 1016.8 hPa SSW 1.6 km/h 14.5 km/h 84 % 0 mm
08:31 29.4 °C 26.2 °C 1016.8 hPa SE 6.4 km/h 14.5 km/h 83 % 0 mm
08:36 29.4 °C 26 °C 1016.8 hPa SE 3.2 km/h 12.9 km/h 82 % 0 mm
08:42 29.4 °C 26 °C 1016.8 hPa WSW 6.4 km/h 11.3 km/h 82 % 0 mm
08:46 29.5 °C 26.1 °C 1016.8 hPa SSE 6.4 km/h 14.5 km/h 82 % 0 mm
08:51 29.7 °C 26.3 °C 1016.8 hPa SSW 4.8 km/h 14.5 km/h 82 % 0 mm
08:57 30.1 °C 26.5 °C 1017.2 hPa South 4.8 km/h 14.5 km/h 81 % 0 mm
09:02 30.4 °C 26.3 °C 1016.8 hPa East 6.4 km/h 11.3 km/h 79 % 0 mm
09:07 30.6 °C 26.3 °C 1017.2 hPa South 1.6 km/h 14.5 km/h 78 % 0 mm
09:12 30.7 °C 26.2 °C 1017.2 hPa SE 6.4 km/h 14.5 km/h 77 % 0 mm
09:17 30.8 °C 26.1 °C 1017.2 hPa Calm   14.5 km/h 76 % 0 mm
09:22 30.8 °C 25.9 °C 1017.2 hPa SW 9.7 km/h 14.5 km/h 75 % 0 mm
09:27 30.8 °C 25.9 °C 1016.8 hPa South 11.3 km/h 14.5 km/h 75 % 0 mm
09:32 30.7 °C 25.8 °C 1016.8 hPa SSW 12.9 km/h 14.5 km/h 75 % 0 mm
09:37 30.7 °C 25.5 °C 1016.8 hPa SE 8 km/h 20.9 km/h 74 % 0 mm
09:42 30.6 °C 25.2 °C 1017.2 hPa South 9.7 km/h 20.9 km/h 73 % 0 mm
09:47 30.7 °C 25.5 °C 1017.2 hPa SSE 8 km/h 20.9 km/h 74 % 0 mm
09:52 30.7 °C 25.3 °C 1017.2 hPa SSW 12.9 km/h 19.3 km/h 73 % 0 mm
09:57 30.9 °C 25.3 °C 1017.2 hPa SW 8 km/h 12.9 km/h 72 % 0 mm
10:02 30.9 °C 25.3 °C 1017.2 hPa South 3.2 km/h 12.9 km/h 72 % 0 mm
10:07 31.1 °C 25.2 °C 1017.2 hPa SSE 4.8 km/h 12.9 km/h 71 % 0 mm
10:12 31.3 °C 24.9 °C 1017.2 hPa SW 6.4 km/h 12.9 km/h 69 % 0 mm
10:17 31.4 °C 25 °C 1017.2 hPa SSW 6.4 km/h 12.9 km/h 69 % 0 mm
10:22 31.5 °C 25.4 °C 1017.2 hPa SSE 6.4 km/h 11.3 km/h 70 % 0 mm
10:27 31.8 °C 26.1 °C 1017.2 hPa SSE 3.2 km/h 11.3 km/h 72 % 0 mm
10:32 32.2 °C 25.8 °C 1017.2 hPa Calm   11.3 km/h 69 % 0 mm
10:37 32.6 °C 25.4 °C 1017.2 hPa South 4.8 km/h 9.7 km/h 66 % 0 mm
10:42 32.4 °C 25 °C 1017.2 hPa Calm   6.4 km/h 65 % 0 mm
10:47 32.1 °C 24.9 °C 1017.2 hPa NW 6.4 km/h 8 km/h 66 % 0 mm
10:52 31.9 °C 25.3 °C 1017.2 hPa NW 4.8 km/h 8 km/h 68 % 0 mm
10:57 31.9 °C 24.8 °C 1017.2 hPa NW 1.6 km/h 8 km/h 66 % 0 mm
11:02 32.1 °C 24.4 °C 1016.8 hPa WSW 1.6 km/h 6.4 km/h 64 % 0 mm
11:07 31.6 °C 24.2 °C 1017.2 hPa NNW 14.5 km/h 14.5 km/h 65 % 0 mm
11:12 30.1 °C 23.8 °C 1017.2 hPa NW 6.4 km/h 17.7 km/h 69 % 0 mm
11:17 29.7 °C 23.9 °C 1016.8 hPa NW 6.4 km/h 17.7 km/h 71 % 0 mm
11:22 29.8 °C 24 °C 1016.8 hPa WNW 6.4 km/h 17.7 km/h 71 % 0 mm
11:27 30.1 °C 24.5 °C 1016.8 hPa North 9.7 km/h 16.1 km/h 72 % 0 mm
11:32 30.3 °C 24.4 °C 1016.8 hPa NW 3.2 km/h 14.5 km/h 71 % 0 mm
11:37 30.6 °C 24.7 °C 1016.5 hPa WNW 4.8 km/h 12.9 km/h 71 % 0 mm
11:42 30.8 °C 24.7 °C 1016.5 hPa NW 6.4 km/h 11.3 km/h 70 % 0 mm
11:47 30.9 °C 24.5 °C 1016.5 hPa NE 1.6 km/h 9.7 km/h 69 % 0 mm
11:52 31.3 °C 24.7 °C 1016.1 hPa NNE 1.6 km/h 9.7 km/h 68 % 0 mm
11:57 31.7 °C 25.3 °C 1016.1 hPa NW 1.6 km/h 9.7 km/h 69 % 0 mm
12:02 31.7 °C 24.8 °C 1016.1 hPa ENE 4.8 km/h 9.7 km/h 67 % 0 mm
12:07 31.9 °C 25.3 °C 1016.1 hPa Calm   9.7 km/h 68 % 0 mm
12:12 32 °C 25.1 °C 1016.1 hPa ESE 4.8 km/h 9.7 km/h 67 % 0 mm
12:17 32 °C 24.8 °C 1016.1 hPa East 3.2 km/h 9.7 km/h 66 % 0 mm
12:22 31.9 °C 25.5 °C 1015.8 hPa NW 6.4 km/h 9.7 km/h 69 % 0 mm
12:27 32.1 °C 25.9 °C 1015.8 hPa North 1.6 km/h 9.7 km/h 70 % 0 mm
12:32 32.6 °C 25.7 °C 1015.8 hPa ENE 3.2 km/h 9.7 km/h 67 % 0 mm
12:37 32.6 °C 25.2 °C 1015.8 hPa SSE 4.8 km/h 9.7 km/h 65 % 0 mm
12:42 32.8 °C 25.3 °C 1015.8 hPa Calm   9.7 km/h 65 % 0 mm
12:47 33.1 °C 25.4 °C 1015.8 hPa Calm   9.7 km/h 64 % 0 mm
12:52 33.5 °C 25.5 °C 1015.8 hPa SE 4.8 km/h 8 km/h 63 % 0 mm
12:57 33.9 °C 25 °C 1015.5 hPa ENE 3.2 km/h 9.7 km/h 60 % 0 mm
13:02 33.9 °C 25.3 °C 1015.5 hPa NW 3.2 km/h 9.7 km/h 61 % 0 mm
13:03 33.9 °C 25.3 °C 1015.5 hPa NW 1.6 km/h 9.7 km/h 61 % 0 mm
13:08 34.3 °C 25.7 °C 1015.5 hPa East 1.6 km/h 9.7 km/h 61 % 0 mm
13:13 34.3 °C 25.1 °C 1015.5 hPa East 3.2 km/h 8 km/h 59 % 0 mm
13:18 34.3 °C 25.4 °C 1015.5 hPa ESE 16.1 km/h 16.1 km/h 60 % 0 mm
13:23 34.1 °C 24.9 °C 1015.1 hPa SSE 6.4 km/h 17.7 km/h 59 % 0 mm
13:28 33.7 °C 24.9 °C 1015.1 hPa SE 4.8 km/h 17.7 km/h 60 % 0 mm
13:33 33.7 °C 24.9 °C 1015.5 hPa SSW 3.2 km/h 17.7 km/h 60 % 0 mm
13:38 33.7 °C 24.9 °C 1015.1 hPa SE 8 km/h 16.1 km/h 60 % 0 mm
13:43 34.1 °C 24.9 °C 1015.1 hPa SE 11.3 km/h 16.1 km/h 59 % 0 mm
13:48 34.3 °C 25.1 °C 1015.1 hPa South 9.7 km/h 16.1 km/h 59 % 0 mm
13:53 34.6 °C 24.8 °C 1014.8 hPa Calm   16.1 km/h 57 % 0 mm
13:58 34.8 °C 24.7 °C 1014.8 hPa SSE 14.5 km/h 16.1 km/h 56 % 0 mm
14:03 35 °C 24.3 °C 1014.8 hPa ENE 4.8 km/h 16.1 km/h 54 % 0 mm
14:08 35.1 °C 24.4 °C 1014.8 hPa SE 11.3 km/h 16.1 km/h 54 % 0 mm
14:13 35 °C 24.6 °C 1014.8 hPa South 6.4 km/h 17.7 km/h 55 % 0 mm
14:18 35.2 °C 24.8 °C 1014.8 hPa SSE 4.8 km/h 17.7 km/h 55 % 0 mm
14:23 35.5 °C 23.8 °C 1014.8 hPa ESE 12.9 km/h 17.7 km/h 51 % 0 mm
14:28 35.6 °C 23.6 °C 1014.4 hPa ESE 3.2 km/h 19.3 km/h 50 % 0 mm
14:33 35.8 °C 24.1 °C 1014.4 hPa South 14.5 km/h 19.3 km/h 51 % 0 mm
14:38 35.6 °C 24.5 °C 1014.4 hPa SE 9.7 km/h 19.3 km/h 53 % 0 mm
14:43 35.6 °C 24.2 °C 1014.4 hPa SSW 8 km/h 17.7 km/h 52 % 0 mm
14:48 35.7 °C 24.6 °C 1014.4 hPa SE 9.7 km/h 17.7 km/h 53 % 0 mm
14:53 35.7 °C 24 °C 1014.4 hPa SE 6.4 km/h 17.7 km/h 51 % 0 mm
14:58 35.6 °C 23.9 °C 1014.4 hPa SSE 4.8 km/h 17.7 km/h 51 % 0 mm
15:03 35.3 °C 23.9 °C 1014.4 hPa SE 8 km/h 17.7 km/h 52 % 0 mm
15:08 35.5 °C 24.1 °C 1014.4 hPa SSE 6.4 km/h 17.7 km/h 52 % 0 mm
15:14 35.4 °C 24 °C 1014.4 hPa North 4.8 km/h 17.7 km/h 52 % 0 mm
15:19 35.2 °C 23.9 °C 1014.4 hPa ESE 8 km/h 16.1 km/h 52 % 0 mm
15:24 35 °C 24 °C 1014.1 hPa East 12.9 km/h 14.5 km/h 53 % 0 mm
15:29 34.9 °C 23.9 °C 1014.1 hPa East 6.4 km/h 17.7 km/h 53 % 0 mm
15:34 35.2 °C 23.9 °C 1014.1 hPa South 11.3 km/h 17.7 km/h 52 % 0 mm
15:39 35.3 °C 24.3 °C 1014.1 hPa SE 12.9 km/h 17.7 km/h 53 % 0 mm
15:44 35.5 °C 24.1 °C 1013.8 hPa East 9.7 km/h 17.7 km/h 52 % 0 mm
15:49 35.6 °C 23.9 °C 1013.8 hPa ESE 12.9 km/h 17.7 km/h 51 % 0 mm
15:54 35.7 °C 24 °C 1013.8 hPa ESE 11.3 km/h 17.7 km/h 51 % 0 mm
15:59 35.7 °C 24 °C 1013.8 hPa SE 3.2 km/h 17.7 km/h 51 % 0 mm
16:04 35.8 °C 24.1 °C 1013.8 hPa SE 8 km/h 14.5 km/h 51 % 0 mm
16:09 36 °C 24.3 °C 1013.8 hPa SE 6.4 km/h 14.5 km/h 51 % 0 mm
16:14 35.6 °C 24.2 °C 1013.8 hPa ESE 14.5 km/h 14.5 km/h 52 % 0 mm
16:19 35.2 °C 24.2 °C 1013.8 hPa ESE 1.6 km/h 17.7 km/h 53 % 0 mm
16:24 35.3 °C 24.6 °C 1013.4 hPa SE 8 km/h 17.7 km/h 54 % 0 mm
16:29 35.7 °C 24.3 °C 1013.4 hPa SE 8 km/h 17.7 km/h 52 % 0 mm
16:34 35.6 °C 23.6 °C 1013.4 hPa East 9.7 km/h 19.3 km/h 50 % 0 mm
16:39 35.5 °C 23.8 °C 1013.4 hPa SSE 9.7 km/h 19.3 km/h 51 % 0 mm
16:44 35.6 °C 23.6 °C 1013.4 hPa South 6.4 km/h 19.3 km/h 50 % 0 mm
16:49 35.6 °C 24.2 °C 1013.4 hPa SE 6.4 km/h 19.3 km/h 52 % 0 mm
16:54 35.6 °C 23.9 °C 1013.1 hPa SSE 4.8 km/h 19.3 km/h 51 % 0 mm
16:59 35.9 °C 24.2 °C 1013.1 hPa SE 4.8 km/h 14.5 km/h 51 % 0 mm
17:04 35.9 °C 24.5 °C 1013.1 hPa SE 9.7 km/h 12.9 km/h 52 % 0 mm
17:09 35.9 °C 24.5 °C 1013.1 hPa SSE 11.3 km/h 14.5 km/h 52 % 0 mm
17:14 35.8 °C 23.8 °C 1013.1 hPa SE 9.7 km/h 14.5 km/h 50 % 0 mm
17:19 35.4 °C 24 °C 1013.1 hPa South 8 km/h 14.5 km/h 52 % 0 mm
17:24 35.2 °C 24.8 °C 1013.1 hPa ESE 14.5 km/h 14.5 km/h 55 % 0 mm
17:29 34.9 °C 24.8 °C 1013.1 hPa SSW 6.4 km/h 16.1 km/h 56 % 0 mm
17:34 34.8 °C 24.1 °C 1013.1 hPa SE 3.2 km/h 16.1 km/h 54 % 0 mm
17:39 34.8 °C 23.8 °C 1013.1 hPa SSE 3.2 km/h 16.1 km/h 53 % 0 mm
17:44 34.7 °C 24.3 °C 1012.8 hPa South 3.2 km/h 12.9 km/h 55 % 0 mm
17:49 34.7 °C 25.2 °C 1012.8 hPa SSE 4.8 km/h 12.9 km/h 58 % 0 mm
17:54 35.1 °C 25.3 °C 1012.8 hPa SE 4.8 km/h 14.5 km/h 57 % 0 mm
17:59 35.2 °C 25.1 °C 1012.8 hPa South 9.7 km/h 16.1 km/h 56 % 0 mm
18:04 35.1 °C 25 °C 1012.8 hPa SSE 3.2 km/h 19.3 km/h 56 % 0 mm
18:09 34.9 °C 25.1 °C 1012.8 hPa ESE 12.9 km/h 19.3 km/h 57 % 0 mm
18:14 34.8 °C 25.3 °C 1012.8 hPa SE 11.3 km/h 19.3 km/h 58 % 0 mm
18:19 34.7 °C 25.2 °C 1012.8 hPa South 11.3 km/h 19.3 km/h 58 % 0 mm
18:24 34.6 °C 25.4 °C 1012.8 hPa SSW 8 km/h 19.3 km/h 59 % 0 mm
18:25 34.5 °C 25.3 °C 1012.8 hPa SSW 8 km/h 19.3 km/h 59 % 0 mm
18:30 34.2 °C 25 °C 1012.8 hPa South 9.7 km/h 19.3 km/h 59 % 0 mm
18:35 33.8 °C 24.9 °C 1012.8 hPa SSE 8 km/h 17.7 km/h 60 % 0 mm
18:40 33.7 °C 24.9 °C 1012.8 hPa SSE 8 km/h 17.7 km/h 60 % 0 mm
18:45 33.5 °C 24.9 °C 1012.8 hPa SE 11.3 km/h 19.3 km/h 61 % 0 mm
18:50 33.3 °C 24.8 °C 1012.8 hPa SE 4.8 km/h 19.3 km/h 61 % 0 mm
18:55 33.3 °C 25 °C 1012.8 hPa South 12.9 km/h 19.3 km/h 62 % 0 mm
18:57 33.2 °C 24.7 °C 1012.8 hPa SE 6.4 km/h 19.3 km/h 61 % 0 mm
19:02 33.2 °C 24.9 °C 1012.8 hPa SSE 12.9 km/h 17.7 km/h 62 % 0 mm
19:07 33.1 °C 24.8 °C 1012.8 hPa SE 6.4 km/h 17.7 km/h 62 % 0 mm
19:12 32.9 °C 24.9 °C 1012.8 hPa East 9.7 km/h 17.7 km/h 63 % 0 mm
19:17 32.9 °C 24.9 °C 1013.1 hPa SSW 6.4 km/h 19.3 km/h 63 % 0 mm
19:22 32.8 °C 24.8 °C 1012.8 hPa SE 4.8 km/h 19.3 km/h 63 % 0 mm
19:27 32.8 °C 24.8 °C 1013.1 hPa SSE 11.3 km/h 19.3 km/h 63 % 0 mm
19:32 32.7 °C 25 °C 1013.1 hPa South 11.3 km/h 19.3 km/h 64 % 0 mm
19:37 32.6 °C 24.9 °C 1013.1 hPa SSE 6.4 km/h 19.3 km/h 64 % 0 mm
19:42 32.5 °C 24.8 °C 1013.1 hPa SE 16.1 km/h 19.3 km/h 64 % 0 mm
19:47 32.4 °C 25 °C 1013.1 hPa SSE 14.5 km/h 22.5 km/h 65 % 0 mm
19:52 32.3 °C 24.9 °C 1013.4 hPa SE 8 km/h 22.5 km/h 65 % 0 mm
19:57 32.2 °C 25 °C 1013.4 hPa SE 8 km/h 22.5 km/h 66 % 0 mm
20:02 31.9 °C 25 °C 1013.1 hPa SSE 12.9 km/h 24.1 km/h 67 % 0 mm
20:03 31.9 °C 25 °C 1013.4 hPa SSE 6.4 km/h 24.1 km/h 67 % 0 mm
20:08 31.8 °C 25.2 °C 1013.4 hPa SE 11.3 km/h 24.1 km/h 68 % 0 mm
20:13 31.7 °C 25.1 °C 1013.4 hPa ESE 12.9 km/h 24.1 km/h 68 % 0 mm
20:18 31.5 °C 25.1 °C 1013.8 hPa ESE 6.4 km/h 20.9 km/h 69 % 0 mm
20:23 31.4 °C 25 °C 1013.8 hPa South 9.7 km/h 20.9 km/h 69 % 0 mm
20:28 31.3 °C 25.2 °C 1013.8 hPa SSW 17.7 km/h 20.9 km/h 70 % 0 mm
20:33 31.1 °C 25.2 °C 1013.8 hPa SSE 16.1 km/h 22.5 km/h 71 % 0 mm
20:38 30.9 °C 25 °C 1013.8 hPa South 9.7 km/h 22.5 km/h 71 % 0 mm
20:43 30.8 °C 24.9 °C 1013.8 hPa South 9.7 km/h 22.5 km/h 71 % 0 mm
20:48 30.7 °C 25.1 °C 1014.1 hPa SE 12.9 km/h 22.5 km/h 72 % 0 mm
20:53 30.6 °C 25 °C 1014.1 hPa East 8 km/h 24.1 km/h 72 % 0 mm
20:58 30.4 °C 25 °C 1014.1 hPa SE 8 km/h 24.1 km/h 73 % 0 mm
21:03 30.3 °C 24.9 °C 1014.4 hPa SE 6.4 km/h 24.1 km/h 73 % 0 mm
21:08 30.3 °C 25.1 °C 1014.4 hPa SSE 6.4 km/h 17.7 km/h 74 % 0 mm
21:13 30.1 °C 25 °C 1014.4 hPa SSW 4.8 km/h 17.7 km/h 74 % 0 mm
21:19 30 °C 24.9 °C 1014.4 hPa SSW 4.8 km/h 16.1 km/h 74 % 0 mm
21:24 29.8 °C 24.9 °C 1014.4 hPa South 8 km/h 16.1 km/h 75 % 0 mm
21:29 29.8 °C 24.9 °C 1014.8 hPa South 6.4 km/h 17.7 km/h 75 % 0 mm
21:34 29.7 °C 24.8 °C 1014.8 hPa SE 11.3 km/h 17.7 km/h 75 % 0 mm
21:39 29.6 °C 24.7 °C 1014.8 hPa ESE 12.9 km/h 19.3 km/h 75 % 0 mm
21:44 29.6 °C 24.9 °C 1014.8 hPa South 6.4 km/h 20.9 km/h 76 % 0 mm
21:49 29.4 °C 24.7 °C 1015.1 hPa SSW 11.3 km/h 20.9 km/h 76 % 0 mm
21:54 29.4 °C 24.7 °C 1015.1 hPa SE 8 km/h 20.9 km/h 76 % 0 mm
21:59 29.3 °C 24.6 °C 1015.1 hPa SSE 11.3 km/h 19.3 km/h 76 % 0 mm
22:04 29.3 °C 24.8 °C 1015.1 hPa South 11.3 km/h 19.3 km/h 77 % 0 mm
22:09 29.2 °C 24.7 °C 1015.5 hPa SSE 4.8 km/h 17.7 km/h 77 % 0 mm
22:14 29.1 °C 24.7 °C 1015.5 hPa ESE 6.4 km/h 17.7 km/h 77 % 0 mm
22:19 29 °C 24.6 °C 1015.5 hPa SSE 4.8 km/h 17.7 km/h 77 % 0 mm
22:24 28.9 °C 24.7 °C 1015.5 hPa South 9.7 km/h 14.5 km/h 78 % 0 mm
22:29 28.8 °C 24.6 °C 1015.5 hPa SSE 11.3 km/h 14.5 km/h 78 % 0 mm
22:34 28.8 °C 24.6 °C 1015.5 hPa SSE 8 km/h 14.5 km/h 78 % 0 mm
22:39 28.8 °C 24.6 °C 1015.5 hPa SSE 6.4 km/h 14.5 km/h 78 % 0 mm
22:44 28.7 °C 24.5 °C 1015.5 hPa SSE 4.8 km/h 14.5 km/h 78 % 0 mm
22:54 28.6 °C 24.6 °C 1015.8 hPa SSE 6.4 km/h 12.9 km/h 79 % 0 mm
22:59 28.5 °C 24.5 °C 1015.8 hPa SSE 4.8 km/h 12.9 km/h 79 % 0 mm
23:04 28.4 °C 24.6 °C 1015.8 hPa SSE 4.8 km/h 11.3 km/h 80 % 0 mm
23:09 28.3 °C 24.5 °C 1015.8 hPa SSE 4.8 km/h 11.3 km/h 80 % 0 mm
23:14 28.3 °C 24.7 °C 1015.8 hPa SSE 1.6 km/h 11.3 km/h 81 % 0 mm
23:19 28.2 °C 24.6 °C 1015.8 hPa SSE 3.2 km/h 9.7 km/h 81 % 0 mm
23:24 28.2 °C 24.6 °C 1016.1 hPa SSE 3.2 km/h 9.7 km/h 81 % 0 mm
23:29 28.1 °C 24.5 °C 1016.1 hPa SE 1.6 km/h 9.7 km/h 81 % 0 mm
23:34 28.1 °C 24.7 °C 1016.1 hPa Calm   8 km/h 82 % 0 mm
23:39 27.9 °C 24.5 °C 1016.1 hPa ESE 4.8 km/h 8 km/h 82 % 0 mm
23:44 27.9 °C 24.7 °C 1016.1 hPa SSE 4.8 km/h 8 km/h 83 % 0 mm
23:49 27.9 °C 24.7 °C 1016.1 hPa SSE 9.7 km/h 9.7 km/h 83 % 0 mm
23:54 27.9 °C 24.7 °C 1016.1 hPa SW 6.4 km/h 9.7 km/h 83 % 0 mm
23:59 27.9 °C 24.7 °C 1016.1 hPa SSW 4.8 km/h 12.9 km/h 83 % 0 mm
Spring, Texas: Villages of Bridgestone
Compliments of Weather Underground - 2.75 mb

Script developed by  Jim McMurry - jmcmurry@mwt.net Adapted for the template by  Wim van der Kuil - Leuven-Template.eu

You find our weather info also at:

UK Metoffice

WeatherCloud

Weather Underground

Mid-South Weather Network

AWEKAS

Citizen Weather Observer Program (CWOP)

HAMweather, WeatherForYou, PWS Weather

Equipment we use:

Weather-station
Davis Vantage Vue

Weather-program
Meteohub

Weather-server
Debian 7.9 x86 (Guest)

Provider
DreamHost

Davis Vantage Vue

Meteohub

Debian 7.9 x86 (Guest)

DreamHost